Cheboygan, MI

10:50 PM EST on February 24, 2017 (GMT -0500)
Cheboygan

Weather History for KSLH - October, 2013

Change the Weather History Date:

Thursday, October 10, 2013

  Actual Average (KMCD) Record (KMCD)
Temperature  
Mean Temperature 54 °F -  
Max Temperature 69 °F 54 °F 71 °F (2003)
Min Temperature 38 °F 42 °F 29 °F (1986)
Degree Days  
Heating Degree Days 12    
Growing Degree Days 4 (Base 50)    
Moisture  
Dew Point 44 °F    
Average Humidity 77    
Maximum Humidity 94    
Minimum Humidity 38    
Precipitation  
Precipitation 0.00 in - - ()
Sea Level Pressure  
Sea Level Pressure 30.18 in    
Wind  
Wind Speed 2 mph (ESE)    
Max Wind Speed 12 mph    
Max Gust Speed -    
Visibility 8 miles    
Events Fog    
Averages and records for this station are not official NWS values.
T = Trace of Precipitation, MM = Missing Value Source: NWS Daily Summary

Daily Weather History Graph

Daily Weather History Graph

Search for Another Location

Airport or City:

Trip Planner

Search our weather history database for the weather conditions in past years. The results will help you decide how hot, cold, wet, or windy it might be!

Date:

Astronomy

Oct. 10, 2013 Rise Set
Actual Time 7:48 AM EDT 7:00 PM EDT
Civil Twilight 7:18 AM EDT 7:30 PM EDT
Nautical Twilight 6:44 AM EDT 8:04 PM EDT
Astronomical Twilight 6:09 AM EDT 8:39 PM EDT
Moon 1:50 PM EDT (10/10) 11:27 PM EDT (10/10)
Length of Visible Light 12h 12m
Length of Day
11h 12m
Waxing Crescent, 35% of the Moon is Illuminated
Oct 10
Waxing Crescent
Oct 11
First Quarter
Oct 18
Full
Oct 26
Last Quarter
Nov 3
New

Hourly Weather History & Observations

Time (EDT) Temp. Windchill Dew Point Humidity Pressure Visibility Wind Dir Wind Speed Gust Speed Precip Events Conditions
12:16 AM 47.5 °F - 45.0 °F 91% 30.20 in 10.0 mi Calm Calm - N/A   Clear
12:35 AM 46.0 °F - 42.4 °F 87% 30.20 in 10.0 mi Calm Calm - N/A   Clear
12:56 AM 46.8 °F - 45.1 °F 94% 30.20 in 1.8 mi Calm Calm - N/A   Mist
1:16 AM 45.7 °F - 43.9 °F 93% 30.19 in 7.0 mi Calm Calm - N/A   Clear
1:36 AM 43.2 °F - 41.2 °F 93% 30.19 in 5.0 mi Calm Calm - N/A   Clear
1:56 AM 43.0 °F - 41.4 °F 94% 30.20 in 0.5 mi Calm Calm - N/A Fog Fog
2:16 AM 43.7 °F - 42.1 °F 94% 30.20 in 0.5 mi Calm Calm - N/A Fog Fog
2:36 AM 42.4 °F - 40.5 °F 93% 30.20 in 0.8 mi Calm Calm - N/A   Mostly Cloudy
2:55 AM 42.6 °F - 41.0 °F 94% 30.20 in 1.2 mi Calm Calm - N/A   Scattered Clouds
3:16 AM 41.4 °F - 39.2 °F 92% 30.19 in 0.8 mi Calm Calm - N/A   Mostly Cloudy
3:36 AM 40.1 °F - 37.6 °F 91% 30.20 in 0.5 mi Calm Calm - N/A Fog Fog
3:55 AM 41.2 °F - 39.6 °F 94% 30.20 in 0.5 mi Calm Calm - N/A Fog Fog
4:16 AM 41.2 °F 39.2 °F 39.6 °F 94% 30.19 in 7.0 mi South 3.5 mph - N/A   Clear
4:35 AM 41.4 °F - 39.7 °F 94% 30.20 in 7.0 mi Calm Calm - N/A   Clear
4:56 AM 40.1 °F - 37.8 °F 91% 30.20 in 7.0 mi Calm Calm - N/A   Clear
5:16 AM 40.8 °F - 39.2 °F 94% 30.20 in 10.0 mi Calm Calm - N/A   Clear
5:35 AM 39.7 °F - 37.9 °F 93% 30.21 in 10.0 mi Calm Calm - N/A   Clear
5:56 AM 39.4 °F - 37.4 °F 93% 30.21 in 10.0 mi Calm Calm - N/A   Clear
6:16 AM 39.6 °F - 37.6 °F 93% 30.20 in 7.0 mi Calm Calm - N/A   Clear
6:36 AM 38.5 °F - 36.1 °F 91% 30.21 in 1.5 mi Calm Calm - N/A   Mist
6:56 AM 40.1 °F - 38.1 °F 93% 30.21 in 1.0 mi Calm Calm - N/A   Mist
7:16 AM 41.7 °F - 40.1 °F 94% 30.21 in 1.2 mi Calm Calm - N/A   Mist
7:36 AM 41.9 °F - 39.9 °F 93% 30.21 in 5.0 mi Calm Calm - N/A   Clear
7:56 AM 44.2 °F - 42.6 °F 94% 30.21 in 4.0 mi Calm Calm - N/A   Clear
8:15 AM 45.0 °F 43.5 °F 43.2 °F 93% 30.21 in 7.0 mi SSW 3.5 mph - N/A   Clear
8:36 AM 48.9 °F - 46.8 °F 92% 30.21 in 10.0 mi South 4.6 mph - N/A   Clear
8:56 AM 50.2 °F - 46.6 °F 87% 30.21 in 10.0 mi South 4.6 mph - N/A   Clear
9:15 AM 51.6 °F - 46.6 °F 83% 30.21 in 10.0 mi South 4.6 mph - N/A   Clear
9:36 AM 52.9 °F - 47.1 °F 81% 30.21 in 10.0 mi South 4.6 mph - N/A   Clear
9:56 AM 54.7 °F - 47.7 °F 77% 30.21 in 10.0 mi South 3.5 mph - N/A   Clear
10:16 AM 57.0 °F - 48.4 °F 73% 30.21 in 10.0 mi SSW 3.5 mph - N/A   Clear
10:36 AM 59.2 °F - 48.7 °F 68% 30.21 in 10.0 mi Calm Calm - N/A   Clear
10:55 AM 62.2 °F - 48.0 °F 60% 30.21 in 10.0 mi SSW 4.6 mph - N/A   Clear
11:16 AM 64.4 °F - 45.5 °F 50% 30.21 in 10.0 mi SSW 5.8 mph - N/A   Clear
11:35 AM 66.2 °F - 45.1 °F 47% 30.21 in 10.0 mi SSW 6.9 mph - N/A   Clear
11:56 AM 67.1 °F - 44.1 °F 43% 30.21 in 10.0 mi SSW 4.6 mph - N/A   Clear
12:16 PM 68.4 °F - 43.5 °F 41% 30.21 in 10.0 mi WSW 4.6 mph - N/A   Clear
12:35 PM 68.9 °F - 43.0 °F 39% 30.20 in 10.0 mi SW 4.6 mph - N/A   Clear
12:56 PM 69.3 °F - 42.8 °F 38% 30.19 in 10.0 mi Calm Calm - N/A   Clear
1:16 PM 69.3 °F - 45.9 °F 43% 30.19 in 10.0 mi ENE 4.6 mph - N/A   Clear
1:35 PM 67.1 °F - 50.4 °F 55% 30.18 in 10.0 mi NE 4.6 mph - N/A   Clear
1:56 PM 64.2 °F - 49.6 °F 59% 30.19 in 7.0 mi ENE 9.2 mph - N/A   Clear
2:16 PM 64.4 °F - 48.0 °F 55% 30.18 in 10.0 mi ENE 8.1 mph - N/A   Clear
2:36 PM 65.3 °F - 47.3 °F 52% 30.18 in 10.0 mi ENE 6.9 mph - N/A   Clear
2:56 PM 65.7 °F - 46.4 °F 50% 30.17 in 10.0 mi ENE 10.4 mph - N/A   Clear
3:16 PM 64.4 °F - 49.1 °F 58% 30.17 in 10.0 mi NE 9.2 mph - N/A   Clear
3:36 PM 63.5 °F - 47.5 °F 56% 30.17 in 10.0 mi ENE 9.2 mph - N/A   Clear
3:56 PM 62.6 °F - 47.7 °F 58% 30.16 in 10.0 mi NE 11.5 mph - N/A   Clear
4:15 PM 63.0 °F - 48.6 °F 59% 30.15 in 10.0 mi NE 8.1 mph - N/A   Clear
4:36 PM 63.9 °F - 46.9 °F 54% 30.15 in 10.0 mi ENE 10.4 mph - N/A   Clear
4:56 PM 62.6 °F - 48.4 °F 60% 30.15 in 10.0 mi ENE 10.4 mph - N/A   Clear
5:15 PM 62.6 °F - 46.9 °F 57% 30.14 in 10.0 mi ENE 9.2 mph - N/A   Clear
5:36 PM 63.0 °F - 46.9 °F 56% 30.14 in 10.0 mi NE 4.6 mph - N/A   Clear
5:56 PM 60.4 °F - 49.8 °F 68% 30.14 in 10.0 mi NE 6.9 mph - N/A   Clear
6:16 PM 59.0 °F - 49.8 °F 72% 30.14 in 10.0 mi NE 4.6 mph - N/A   Clear
6:36 PM 58.1 °F - 48.6 °F 71% 30.15 in 10.0 mi ENE 5.8 mph - N/A   Clear
6:56 PM 56.5 °F - 48.0 °F 73% 30.14 in 10.0 mi NNE 4.6 mph - N/A   Clear
7:16 PM 53.8 °F - 46.8 °F 77% 30.14 in 10.0 mi NE 3.5 mph - N/A   Clear
7:36 PM 53.4 °F - 47.8 °F 81% 30.13 in 10.0 mi Calm Calm - N/A   Clear
7:55 PM 52.9 °F - 47.3 °F 81% 30.13 in 10.0 mi Calm Calm - N/A   Clear
8:16 PM 52.3 °F - 47.7 °F 84% 30.13 in 10.0 mi Calm Calm - N/A   Clear
8:36 PM 50.2 °F - 47.1 °F 89% 30.13 in 10.0 mi Calm Calm - N/A   Clear
8:56 PM 48.4 °F - 45.9 °F 91% 30.13 in 10.0 mi Calm Calm - N/A   Clear
9:16 PM 47.5 °F - 44.6 °F 90% 30.14 in 10.0 mi Calm Calm - N/A   Clear
9:36 PM 46.8 °F - 44.4 °F 92% 30.14 in 7.0 mi Calm Calm - N/A   Clear
9:56 PM 46.0 °F - 43.0 °F 89% 30.14 in 7.0 mi Calm Calm - N/A   Clear
10:16 PM 46.0 °F - 43.5 °F 91% 30.14 in 7.0 mi Calm Calm - N/A   Clear
10:36 PM 45.5 °F - 41.9 °F 87% 30.14 in 7.0 mi Calm Calm - N/A   Clear
10:56 PM 45.0 °F - 41.9 °F 89% 30.14 in 5.0 mi Calm Calm - N/A   Clear
11:16 PM 44.1 °F - 41.5 °F 91% 30.14 in 1.5 mi Calm Calm - N/A   Mist
11:35 PM 44.2 °F - 42.3 °F 93% 30.14 in 3.0 mi Calm Calm - N/A   Clear
11:56 PM 43.9 °F - 41.0 °F 90% 30.13 in 4.0 mi Calm Calm - N/A   Clear